EW4052 Weather Reports


time (UTC)temp
F
wind
direction
speed
knots
gust
knots
rain 1hr
in
rain 24hr
in
rain mn
in
humidity
%
barometer
mb
20260831163038 81 236 3.5 7.8 0.00 0.02 0.00 60 1009.7
20260831161522 82 243 5.2 7.8 0.00 0.02 0.00 64 1009.7
20260831160033 81 233 4.3 8.7 0.00 0.02 0.00 60 1009.5
20260831154513 80 237 6.1 8.7 0.00 0.34 0.00 58 1009.4
20260831153008 80 234 3.5 7.8 0.00 0.34 0.00 60 1009.4
20260831151511 79 232 5.2 11.3 0.00 0.34 0.00 58 1009.2
20260831150100 79 219 0.0 0.0 0.00 0.34 0.00 55 1009.3
20260831144554 78 225 0.0 0.0 0.00 0.42 0.00 43 1009.1
20260831143059 77 228 0.0 0.0 0.00 0.42 0.00 27 1009.1
20260831141546 76 239 0.0 0.0 0.00 0.42 0.00 5 1009.0
20260831140042 74 200 0.0 0.0 0.00 0.42 0.00 100 1008.9
20260831134538 73 204 0.0 0.0 0.00 0.42 0.00 100 1008.8
20260831133035 71 196 0.0 0.0 0.00 0.42 0.00 100 1008.4
20260831131538 70 184 0.0 0.0 0.00 0.42 0.00 100 1008.2
20260831130034 69 148 0.0 0.0 0.00 0.42 0.00 100 1008.1
20260831124522 0 128 0.0 0.0 0.00 0.42 0.00 1007.8
20260831123021 0 147 0.0 0.0 0.00 0.42 0.00 1007.7
20260831121521 0 173 0.0 0.0 0.00 0.42 0.00 1007.6
20260831120029 0 142 0.0 0.0 0.00 0.42 0.00 1007.4
20260831114520 0 95 0.0 0.0 0.00 0.42 0.00 1007.3
20260831113020 0 150 0.0 0.0 0.00 0.42 0.00 1007.1
20260831111520 0 187 0.0 0.0 0.00 0.42 0.00 1007.2
20260831110019 0 205 0.0 0.0 0.00 0.42 0.00 1007.3
20260831104518 0 211 0.0 0.0 0.00 0.42 0.00 1007.1
20260831103014 69 134 0.0 0.0 0.00 0.42 0.00 100 1007.2
20260831101510 69 147 0.0 0.0 0.00 0.42 0.00 100 1007.2
20260831100006 69 225 0.0 0.0 0.00 0.42 0.00 100 1007.3
20260831094606 69 181 0.0 0.0 0.00 0.42 0.00 100 1007.3
20260831093055 69 175 0.0 0.0 0.00 0.42 0.00 100 1007.4
20260831091551 69 36 0.0 0.0 0.00 0.42 0.00 100 1007.4
20260831090053 69 105 0.0 0.0 0.00 0.42 0.00 100 1007.4
20260831084543 68 59 0.0 0.0 0.00 0.42 0.00 100 1007.5
20260831083038 68 60 0.0 0.0 0.00 0.42 0.00 100 1007.2
20260831081534 68 60 0.0 0.0 0.00 0.42 0.00 100 1007.1
20260831080036 68 60 0.0 0.0 0.00 0.42 0.00 100 1007.3
20260831074525 68 60 0.0 0.0 0.00 0.42 0.00 100 1007.2
20260831073021 68 60 0.0 0.0 0.00 0.42 0.00 100 1007.2
20260831071516 68 60 0.0 0.0 0.00 0.42 0.00 100 1007.3
20260831070016 68 61 0.0 0.0 0.00 0.42 0.00 100 1007.3
20260831064507 68 61 0.0 0.0 0.00 0.42 0.00 100 1007.4
20260831063006 69 61 0.0 0.0 0.00 0.42 0.00 100 1007.6
20260831061605 69 61 0.0 0.0 0.00 0.42 0.00 100 1007.7
20260831060055 69 61 0.0 0.0 0.00 0.42 0.00 100 1007.8
20260831054549 69 61 0.0 0.0 0.00 0.42 0.00 100 1007.8
20260831053046 69 61 0.0 0.0 0.00 0.42 0.00 100 1007.9
20260831051552 69 61 0.0 0.0 0.00 0.42 0.00 100 1007.9
20260831050037 69 61 0.0 0.0 0.00 0.42 0.00 100 1007.9
20260831044534 69 61 0.0 0.0 0.00 0.42 0.42 100 1007.9
20260831043028 69 61 0.0 0.0 0.00 0.42 0.42 100 1007.9
20260831041525 70 61 0.0 0.0 0.00 0.42 0.42 100 1007.7
20260831040019 70 61 0.0 0.0 0.00 0.42 0.42 100 1007.7
20260831034515 70 67 0.0 0.0 0.00 0.42 0.42 100 1007.7
20260831033010 70 67 0.0 0.0 0.00 0.42 0.42 100 1008.0
20260831031506 70 68 0.0 0.0 0.00 0.42 0.42 100 1008.1
20260831030001 70 73 0.0 0.0 0.00 0.42 0.42 100 1008.1
20260831024659 71 90 0.0 0.0 0.00 0.42 0.42 100 1008.2
20260831023052 71 109 0.0 0.0 0.00 0.42 0.42 100 1008.1
20260831021548 71 108 0.0 0.0 0.00 0.42 0.42 100 1008.3
20260831020051 71 355 0.0 0.0 0.00 0.42 0.42 100 1008.3
20260831014544 71 355 0.0 0.0 0.00 0.42 0.42 100 1008.3
20260831013053 72 36 0.0 0.0 0.00 0.42 0.42 100 1008.1
20260831011546 72 140 0.0 0.0 0.00 0.42 0.42 100 1008.0
20260831010050 72 320 0.0 0.0 0.00 0.42 0.42 100 1007.8
20260831004543 73 360 0.0 0.0 0.00 0.42 0.42 100 1007.9
20260831003041 73 355 0.0 0.0 0.00 0.42 0.42 100 1008.0
20260831001536 74 201 0.0 0.0 0.00 0.42 0.42 100 1007.7
20260831000033 74 235 0.0 0.0 0.00 0.42 0.42 100 1007.7
20260830234536 75 134 0.0 0.0 0.00 0.42 0.42 100 1007.8
20260830233023 75 267 0.0 0.0 0.00 0.42 0.42 3 1007.7
20260830231519 76 242 0.0 0.0 0.00 0.42 0.42 23 1007.7
20260830230014 76 118 0.0 0.0 0.00 0.42 0.42 38 1007.3
20260830224509 77 261 0.0 0.0 0.00 0.42 0.42 47 1007.3
20260830223005 77 286 0.0 0.0 0.00 0.42 0.42 49 1007.2
20260830221500 76 273 0.0 0.0 0.00 0.42 0.42 47 1007.1
20260830220058 77 355 0.0 0.0 0.00 0.42 0.42 54 1007.2
20260830214610 77 28 0.0 0.0 0.00 0.42 0.42 56 1007.2
20260830213047 78 254 0.0 0.0 0.00 0.42 0.42 63 1007.2
20260830211543 78 87 0.0 0.0 0.00 0.42 0.42 59 1007.4
20260830210039 79 246 0.0 0.0 0.00 0.42 0.42 60 1007.3
20260830204535 79 217 0.0 0.0 0.00 0.42 0.42 56 1007.1
20260830203030 78 355 0.0 0.0 0.00 0.42 0.42 56 1007.4
20260830201525 77 307 0.0 0.0 0.00 0.42 0.42 44 1007.8
20260830200039 76 309 0.0 0.0 0.00 0.42 0.42 38 1007.6
20260830194517 75 332 0.0 0.0 0.02 0.42 0.42 100 1007.7
20260830193012 73 181 0.0 0.0 0.02 0.42 0.42 100 1007.9
20260830191507 72 348 0.0 0.0 0.02 0.42 0.42 100 1008.0
20260830190013 72 313 0.0 0.0 0.02 0.42 0.42 100 1008.3
20260830184614 73 248 0.0 0.0 0.00 0.40 0.40 100 1008.3
20260830183103 75 60 0.0 0.0 0.00 0.40 0.40 28 1007.9
20260830181550 75 250 0.0 0.0 0.00 0.40 0.40 100 1008.0
20260830180045 74 23 0.0 0.0 0.00 0.40 0.40 13 1007.9
20260830174555 74 312 0.0 0.0 0.00 0.40 0.40 100 1007.9
20260830173037 72 271 0.0 0.0 0.00 0.40 0.40 100 1007.9
20260830171533 70 337 0.0 0.0 0.00 0.40 0.40 100 1007.9
20260830170028 69 167 0.0 0.0 0.00 0.40 0.40 100 1007.9
20260830164524 68 273 0.0 0.0 0.06 0.40 0.40 100 1007.9